Regional Weather Roundup
Issued by NWS

Home | Current Version | Previous Version | Text Only | Print | Product List | Glossary On
Versions: 1 2 3 4 5 6 7 8 9 10 11 12 13 14 15 16 17 18 19 20 21 22 23 24 25 26 27 28 29 30 31 32 33 34 35 36 37 38 39 40 41 42 43 44 45 46 47 48 49 50
000
ASUS43 KLMK 031510
RWRKY
KENTUCKY REGIONAL WEATHER ROUNDUP
NATIONAL WEATHER SERVICE LOUISVILLE KY
1100 AM EDT FRI JUL 03 2015

NOTE "FAIR" INDICATES FEW OR NO CLOUDS BELOW 12,000 FEET
WITH NO SIGNIFICANT WEATHER AND/OR OBSTRUCTIONS TO VISIBILITY.

KYZ001>023-026-027-061>063-070>075-031600-
WESTERN AND SOUTH CENTRAL KENTUCKY

CITY           SKY/WX    TMP DP  RH WIND       PRES   REMARKS
PADUCAH        MOSUNNY   76  69  79 SW7       29.90R HAZE
HENDERSON      CLOUDY    73  70  88 CALM      29.86R
OWENSBORO      CLOUDY    75  71  87 CALM      29.87R FOG
HOPKINSVILLE     N/A     74  70  88 SW10      29.89R
BOWLING GREEN  CLOUDY    74  69  85 W5        29.89R
GLASGOW        CLOUDY    71  71 100 W8        29.89R
$$

KYZ024-025-028>034-038-045-046-053-031600-
NORTH CENTRAL KENTUCKY

CITY           SKY/WX    TMP DP  RH WIND       PRES   REMARKS
LOUISVILLE/SDF CLOUDY    74  70  87 E6        29.86R
LOUISVILLE/LOU CLOUDY    73  69  87 CALM      29.87R
FORT KNOX      CLOUDY    73  70  93 CALM      29.86R
$$

KYZ035>037-039>044-047>052-055>060-089>105-031600-
NORTHEAST KENTUCKY

CITY           SKY/WX    TMP DP  RH WIND       PRES   REMARKS
LEXINGTON      CLOUDY    72  68  87 CALM      29.88R
COVINGTON      CLOUDY    72  64  78 NE7       29.89S
FRANKFORT      CLOUDY    72  67  84 CALM      29.87R
$$

KYZ054-064>069-076>088-106>120-031600-
SOUTHEAST KENTUCKY

CITY           SKY/WX    TMP DP  RH WIND       PRES   REMARKS
JACKSON        CLOUDY    70  68  93 CALM      29.89S
LONDON         TSTM      69  65  86 S6        29.92R FOG
SOMERSET       CLOUDY    68  68 100 CALM      29.90S
MIDDLESBORO    LGT RAIN  71  69  93 S3        29.93R
MONTICELLO     CLOUDY    72  72 100 SW7       29.92S
$$



USA.gov is the U.S. government's official web portal to all federal, state and local government web resources and services.